TimeCST,TemperatureF,Dew PointF,Humidity,Sea Level PressureIn,VisibilityMPH,Wind Direction,Wind SpeedMPH,Gust SpeedMPH,PrecipitationIn,Events,Conditions,WindDirDegrees,DateUTC
12:54 AM,37.9,35.1,89,30.34,10.0,Calm,Calm,-,N/A,,Clear,0,2012-11-17 06:54:00
1:54 AM,36.0,34.0,93,30.33,10.0,Calm,Calm,-,N/A,,Clear,0,2012-11-17 07:54:00
2:54 AM,37.0,34.0,89,30.33,10.0,NNE,4.6,-,N/A,,Clear,30,2012-11-17 08:54:00
3:54 AM,37.0,33.1,86,30.33,10.0,Calm,Calm,-,N/A,,Clear,0,2012-11-17 09:54:00
4:54 AM,35.1,32.0,89,30.34,10.0,Calm,Calm,-,N/A,,Clear,0,2012-11-17 10:54:00
5:54 AM,35.1,32.0,89,30.35,10.0,Calm,Calm,-,N/A,,Clear,0,2012-11-17 11:54:00
6:54 AM,33.1,30.9,92,30.37,8.0,Calm,Calm,-,N/A,,Clear,0,2012-11-17 12:54:00
7:54 AM,44.1,36.0,73,30.39,10.0,Variable,3.5,-,N/A,,Clear,0,2012-11-17 13:54:00
8:54 AM,48.9,35.1,59,30.40,10.0,NNE,5.8,-,N/A,,Clear,20,2012-11-17 14:54:00
9:54 AM,54.0,36.0,51,30.41,10.0,Calm,Calm,-,N/A,,Clear,0,2012-11-17 15:54:00
10:54 AM,59.0,37.9,46,30.40,10.0,Calm,Calm,-,N/A,,Clear,0,2012-11-17 16:54:00
11:54 AM,62.1,37.0,39,30.36,10.0,Variable,5.8,-,N/A,,Clear,0,2012-11-17 17:54:00
12:54 PM,64.9,37.9,37,30.34,10.0,NNE,9.2,-,N/A,,Clear,20,2012-11-17 18:54:00
1:54 PM,64.9,37.0,36,30.32,10.0,Variable,4.6,-,N/A,,Clear,0,2012-11-17 19:54:00
2:54 PM,64.4,37.4,37,30.31,10.0,NNE,6.9,-,N/A,,Clear,20,2012-11-17 20:54:00
3:54 PM,64.0,37.0,37,30.31,10.0,North,6.9,-,N/A,,Clear,360,2012-11-17 21:54:00
4:54 PM,57.9,39.0,49,30.31,10.0,NNE,4.6,-,N/A,,Clear,30,2012-11-17 22:54:00
5:54 PM,51.8,41.0,67,30.32,10.0,West,3.5,-,N/A,,Clear,280,2012-11-17 23:54:00
6:54 PM,46.9,39.9,77,30.32,10.0,Calm,Calm,-,N/A,,Clear,0,2012-11-18 00:54:00
7:54 PM,45.0,39.9,82,30.33,10.0,Calm,Calm,-,N/A,,Clear,0,2012-11-18 01:54:00
8:54 PM,44.1,39.0,82,30.34,10.0,Calm,Calm,-,N/A,,Clear,0,2012-11-18 02:54:00
9:54 PM,42.1,37.9,85,30.36,10.0,Calm,Calm,-,N/A,,Clear,0,2012-11-18 03:54:00
10:54 PM,41.0,37.9,89,30.36,9.0,Calm,Calm,-,N/A,,Clear,0,2012-11-18 04:54:00
11:54 PM,39.9,37.9,93,30.35,7.0,Calm,Calm,-,N/A,,Clear,0,2012-11-18 05:54:00